Location: Prague
(50.0830°N, 14.4670°E)
Time: 02:19:15
(UTC+02:00)

FO-29 - Pass Details

Date: 08 April 2023
Orbit: 799 x 1322 km, 98.5° (Epoch: 29 May)

Event Time Altitude Azimuth Distance (km) Brightness Sun altitude
Rises 04:45:18 0° 20° (NNE) 4,212 13.7 -15.6°
Reaches altitude 10° 04:48:39 10° 32° (NNE) 3,173 13.2 -15.1°
Maximum altitude 04:54:32 26° 87° (E) 2,060 11.9 -14.3°
Drops below altitude 10° 04:59:54 10° 142° (SE) 2,863 12.1 -13.5°
Sets 05:02:44 0° 155° (SSE) 3,726 12.5 -13.1°
